Date String (YYYY-MM-DD hh:mm:ss) UTC,Instrument flags,Ambient pressure (hPa),Sample flow (lpm),Bypass flow (lpm),Sample temperature (°C),Ambient temperature (°C),ASC tube jacket temperature (°C),LED temperature (°C),Box temperature (°C),Sample RH (%),Span deviation,Mass concentration (μg/m³),Mass concentration (μg/m³),Mass concentration (μg/m³)
DateTimeUTC,F1_M11,P_M11,Q1_M11,Q2_M11,T1_M11,T2_M11,T3_M11,T4_M11,T5_M11,U1_M11,ZSPAN_M11,X0_M11,X2_M11,X1_M11
2022-04-25 13:00:00,,0833.5,5.00,0.00,22.0,21.3,00.0,30.8,23.8,14.4,0000.0,0007.38,0003.37,0002.39
2022-04-25 13:01:00,,0833.5,5.01,0.00,22.0,21.3,00.0,30.8,23.8,14.3,0000.0,0007.39,0003.37,0002.38
2022-04-25 13:02:00,,0833.5,4.98,0.00,22.0,21.3,00.0,30.8,23.7,14.2,0000.0,0007.40,0003.36,0002.38
2022-04-25 13:03:00,,0833.5,5.01,0.00,22.0,21.3,00.0,30.8,23.7,14.1,0000.0,0007.08,0003.29,0002.37
2022-04-25 13:04:00,,0833.5,5.01,0.00,22.0,21.5,00.0,30.8,23.8,14.1,0000.0,0006.79,0003.28,0002.36
2022-04-25 13:05:00,,0833.6,5.00,0.00,22.1,22.3,00.0,30.9,24.0,14.0,0000.0,0006.76,0003.32,0002.37
2022-04-25 13:06:00,,0833.6,5.00,0.00,22.2,23.3,00.0,30.9,24.3,14.0,0000.0,0007.23,0003.41,0002.37
2022-04-25 13:07:00,,0833.6,5.00,0.00,22.4,23.5,00.0,31.0,24.4,13.7,0000.0,0007.43,0003.44,0002.36
2022-04-25 13:08:00,,0833.6,5.00,0.00,22.4,23.2,00.0,31.0,24.5,13.6,0000.0,0006.79,0003.45,0002.36
2022-04-25 13:09:00,,0833.6,4.99,0.00,22.5,22.9,00.0,31.1,24.4,13.6,0000.0,0006.86,0003.47,0002.36
2022-04-25 13:10:00,,0833.6,4.99,0.00,22.5,22.7,00.0,31.1,24.4,13.7,0000.0,0006.90,0003.48,0002.36
2022-04-25 13:11:00,,0833.6,5.01,0.00,22.5,22.5,00.0,31.1,24.4,13.7,0000.0,0006.95,0003.47,0002.37
2022-04-25 13:12:00,,0833.6,4.99,0.00,22.5,22.4,00.0,31.2,24.4,13.7,0000.0,0006.81,0003.45,0002.37
2022-04-25 13:13:00,,0833.6,5.01,0.00,22.5,22.3,00.0,31.2,24.4,13.5,0000.0,0006.70,0003.41,0002.37
2022-04-25 13:14:00,,0833.6,5.01,0.00,22.5,22.2,00.0,31.2,24.4,13.5,0000.0,0007.03,0003.43,0002.38
2022-04-25 13:15:00,,0833.6,4.99,0.00,22.5,22.1,00.0,31.2,24.4,13.4,0000.0,0007.07,0003.41,0002.38
2022-04-25 13:16:00,,0833.6,5.00,0.00,22.5,22.0,00.0,31.2,24.3,13.5,0000.0,0007.08,0003.36,0002.35
2022-04-25 13:17:00,,0833.6,5.01,0.00,22.5,22.0,00.0,31.3,24.3,13.6,0000.0,0007.33,0003.28,0002.35
2022-04-25 13:18:00,,0833.6,4.99,0.00,22.5,21.9,00.0,31.3,24.4,13.5,0000.0,0007.58,0003.18,0002.33
2022-04-25 13:19:00,,0833.6,5.00,0.00,22.5,21.9,00.0,31.3,24.4,13.4,0000.0,0007.66,0003.15,0002.32
2022-04-25 13:20:00,,0833.6,5.01,0.00,22.5,21.9,00.0,31.3,24.3,13.5,0000.0,0007.71,0003.16,0002.30
2022-04-25 13:21:00,,0833.6,5.00,0.00,22.5,21.9,00.0,31.3,24.3,13.6,0000.0,0007.72,0003.13,0002.28
2022-04-25 13:22:00,,0833.6,5.00,0.00,22.5,21.8,00.0,31.3,24.3,13.6,0000.0,0007.82,0003.12,0002.27
2022-04-25 13:23:00,,0833.6,5.00,0.00,22.5,21.8,00.0,31.3,24.3,13.5,0000.0,0008.05,0003.10,0002.25
2022-04-25 13:24:00,,0833.6,4.98,0.00,22.5,21.8,00.0,31.3,24.3,13.5,0000.0,0008.58,0003.13,0002.23
2022-04-25 13:25:00,,0833.6,5.01,0.00,22.5,21.8,00.0,31.3,24.3,13.5,0000.0,0008.39,0003.14,0002.23
2022-04-25 13:26:00,,0833.6,5.00,0.00,22.5,21.8,00.0,31.4,24.3,13.4,0000.0,0008.27,0003.11,0002.22
2022-04-25 13:27:00,,0833.6,5.00,0.00,22.5,21.8,00.0,31.4,24.3,13.4,0000.0,0007.97,0003.04,0002.20
2022-04-25 13:28:00,,0833.6,5.01,0.00,22.5,21.8,00.0,31.4,24.3,13.2,0000.0,0007.50,0003.02,0002.19
2022-04-25 13:29:00,,0833.6,5.01,0.00,22.5,21.8,00.0,31.4,24.3,13.1,0000.0,0007.00,0003.07,0002.20
2022-04-25 13:30:00,,0833.6,5.00,0.00,22.5,21.8,00.0,31.4,24.3,13.2,0000.0,0006.81,0003.05,0002.20
2022-04-25 13:31:00,,0833.6,4.99,0.00,22.5,21.8,00.0,31.4,24.3,13.0,0000.0,0007.13,0003.05,0002.20
2022-04-25 13:32:00,,0833.6,5.00,0.00,22.5,21.7,00.0,31.4,24.3,13.0,0000.0,0007.04,0003.02,0002.21
2022-04-25 13:33:00,,0833.6,5.00,0.00,22.5,21.7,00.0,31.4,24.3,13.0,0000.0,0006.85,0003.02,0002.21
2022-04-25 13:34:00,,0833.6,5.00,0.00,22.5,21.7,00.0,31.4,24.3,12.8,0000.0,0006.32,0003.06,0002.19
2022-04-25 13:35:00,,0833.6,5.01,0.00,22.5,21.7,00.0,31.4,24.3,12.9,0000.0,0005.47,0003.07,0002.19
2022-04-25 13:36:00,,0833.6,4.98,0.00,22.5,21.8,00.0,31.4,24.3,13.0,0000.0,0005.51,0003.08,0002.18
2022-04-25 13:37:00,,0833.6,5.00,0.00,22.5,21.8,00.0,31.4,24.3,12.9,0000.0,0005.86,0003.12,0002.17
2022-04-25 13:38:00,,0833.6,5.01,0.00,22.5,21.8,00.0,31.4,24.3,12.9,0000.0,0007.22,0003.16,0002.18
2022-04-25 13:39:00,,0833.6,5.00,0.00,22.5,21.8,00.0,31.4,24.3,13.0,0000.0,0007.33,0003.20,0002.19
2022-04-25 13:40:00,,0833.6,5.01,0.00,22.5,21.7,00.0,31.4,24.4,13.0,0000.0,0007.47,0003.19,0002.18
2022-04-25 13:41:00,,0833.6,5.00,0.00,22.6,21.8,00.0,31.4,24.3,13.0,0000.0,0007.80,0003.21,0002.17
2022-04-25 13:42:00,,0833.6,4.98,0.00,22.6,21.8,00.0,31.4,24.4,12.9,0000.0,0007.80,0003.21,0002.18
2022-04-25 13:43:00,,0833.6,5.01,0.00,22.5,21.8,00.0,31.4,24.4,13.1,0000.0,0007.79,0003.19,0002.17
2022-04-25 13:44:00,,0833.6,4.99,0.00,22.6,21.8,00.0,31.4,24.4,13.2,0000.0,0007.80,0003.18,0002.17
2022-04-25 13:45:00,,0833.6,5.00,0.00,22.6,21.8,00.0,31.4,24.4,13.4,0000.0,0007.77,0003.17,0002.17
2022-04-25 13:46:00,,0833.6,5.00,0.00,22.6,21.8,00.0,31.4,24.4,13.5,0000.0,0007.72,0003.15,0002.17
2022-04-25 13:47:00,,0833.7,5.00,0.00,22.6,21.8,00.0,31.4,24.4,13.5,0000.0,0007.73,0003.15,0002.16
2022-04-25 13:48:00,,0833.7,4.99,0.00,22.6,21.8,00.0,31.4,24.4,13.4,0000.0,0007.73,0003.13,0002.15
2022-04-25 13:49:00,,0833.7,5.00,0.00,22.6,21.8,00.0,31.4,24.4,13.1,0000.0,0006.95,0003.12,0002.16
2022-04-25 13:50:00,,0833.7,5.00,0.00,22.6,21.8,00.0,31.4,24.4,13.0,0000.0,0006.76,0003.08,0002.14
2022-04-25 13:51:00,,0833.7,4.99,0.00,22.6,21.8,00.0,31.4,24.4,12.9,0000.0,0006.56,0003.08,0002.12
2022-04-25 13:52:00,,0833.7,5.01,0.00,22.6,21.8,00.0,31.4,24.4,12.9,0000.0,0005.81,0003.03,0002.11
2022-04-25 13:53:00,,0833.7,5.01,0.00,22.6,21.8,00.0,31.4,24.4,12.9,0000.0,0005.85,0002.99,0002.11
2022-04-25 13:54:00,,0833.7,5.00,0.00,22.6,21.8,00.0,31.4,24.4,12.9,0000.0,0006.84,0003.05,0002.11
2022-04-25 13:55:00,,0833.7,5.00,0.00,22.6,21.8,00.0,31.4,24.4,12.9,0000.0,0007.25,0003.06,0002.10
2022-04-25 13:56:00,,0833.7,4.98,0.00,22.6,21.8,00.0,31.4,24.4,12.9,0000.0,0007.40,0003.10,0002.09
2022-04-25 13:57:00,,0833.7,5.00,0.00,22.6,21.8,00.0,31.5,24.4,12.8,0000.0,0007.70,0003.11,0002.10
2022-04-25 13:58:00,,0833.7,5.00,0.00,22.6,21.8,00.0,31.5,24.4,12.8,0000.0,0008.09,0003.09,0002.10
2022-04-25 13:59:00,,0833.7,5.01,0.00,22.6,21.8,00.0,31.5,24.4,12.9,0000.0,0008.10,0003.12,0002.11
